SCP
0 0 0 0 0 0 0 0 0 0 0 0 0 0 0 0 0 0 -0 -0 -0 -0 -0 0 0 0 0 0 -0 0 0 0 -0 -0 0 0 0 -0 -0 -0 0 0 0
0 0 0 0 0 0 0 0 0 0 0 0 0 0 0 0 0 0 0 0 -0 -0 -0 0 0 0 0 0 0 0 0 -0 0 0 0 0 0 0 0 -0 -0 -0 0
0 0 0 0 0 0 0 0 0 0 0 0 0 0 0 0 0 0 0 0 0 0 0 0 -0 0 0 0 0 -0 -0 -0 0 0 0 -0 0 0 0 -0 -0 0 0
0 0 0 0 0 0 0 0 0 0 0 0 0 0 0 0 0 0 0 0 0 0 0 0 -0 -0 -0 -0 -0 -0 0 0 0 0 0 0 0 -0 -0 -0 0 0 0
0 0 0 0 0 0 0 0 0 0 0 0 0 0 0 0 0 0 0 0 0 0 0 -0 -0 0 -0 -0 -0 0 0 0 0 0 0 0 -0 -0 -0 -0 -0 -0 0
0 0 0 0 0 0 0 0 0 0 0 0 0 0 0 0 0 0 0 0 0 0 0 -0 0 -0 -0 -0 -0 -0 0 0 0 -0 0 0 0 -0 -0 -0 -0 -0 -0
0 0 0 0 0 0 0 0 0 0 0 0 0 0 0 0 0 0 0 0 0 0 0 0 -0 -0 0 0 -0 0 0 0 -0 -0 0 0 0 0 -0 -0 -0 -0 -0
0 0 0 0 0 0 0 0 0 0 0 0 0 0 0 0 0 0 0 0 0 0 0 0 -0 0 0 0 0 0 0 0 0 -0 0 -0 -0 -0 0 -0 -0 -0 0
0 0 0 0 0 0 0 0 0 0 0 0 0 0 0 0 0 0 -0 0 0 -0 0 -0 0 0 0 0 0 0 0 -0 -0 -0 -0 -0 -0 -0 0 0 0 0 0
0 0 0 0 0 0 0 0 0 0 0 0 0 0 0 -0 -0 -0 0 -0 -0 -0 0 0 0 0 0 0 0 0 0 0 0 0 0 -0 -0 0 0 0 0 0 0
0 0 0 0 0 0 0 -0 -0 0 0 0 0 0 0 0 0 0 0 -0 0 0 0 0 0 0 0 0 0 0 0 0 0 0 0 0 0 0 0 0 0 0 0
-0 0 0 0 0 0 -0 -0 0 -0 -0 0 0 0 0 0 0 0 0 0 0 0 0 0 0 0 0 0 0 0 0 0 0 0 0 0 0 0 0 0 0 0 0
-0 0 0 0 0 -0 -0 -0 -0 -0 -0 0 0 0 0 0 0 0 0 0 0 0 0 0 0 0 0 0 0 0 0 0 0 0 0 0 0 0 0 0 0 0 0
-0 -0 0 0 0 0 -0 0 0 0 0 0 0 0 0 0 0 0 0 0 0 0 0 0 0 0 0 0 0 0 0 0 0 0 0 0 0 0 0 0 0 0 0
0 0 0 0 0 0 0 0 0 0 0 0 0 0 0 0 0 0 0 0 0 0 0 0 0 0 0 0 0 0 0 0 0 0 0 0 0 0 0 0 0 0 0
0 0 0 0 0 0 0 0 0 0 0 0 0 0 0 0 0 0 0 0 0 0 0 0 0 0 0 0 0 0 0 0 0 0 0 0 0 0 0 0 0 0 0
0 0 0 0 0 0 0 0 0 0 0 0 0 0 0 0 0 0 0 0 0 0 0 0 0 0 0 0 0 0 0 0 0 0 0 0 0 0 0 0 0 0 0
0 0 0 0 0 0 0 0 0 0 0 0 0 0 0 0 0 0 0 0 0 0 0 0 0 0 0 0 0 0 0 0 0 0 0 0 0 0 0 0 0 0 0
0 0 0 0 0 0 0 0 0 0 0 0 0 0 0 0 0 0 0 0 0 0 0 0 0 0 0 0 0 0 0 0 0 0 0 0 0 0 0 0 0 0 0
0 0 0 0 0 0 0 0 0 0 0 0 0 0 0 0 0 0 0 0 0 0 0 0 0 0 0 0 0 0 0 0 0 0 0 0 0 0 0 0 0 0 0
0 0 0 0 0 0 0 0 0 0 0 0 0 0 0 0 0 0 0 0 0 0 0 0 0 0 0 0 0 0 0 0 0 0 0 0 0 0 0 0 0 0 0
0 0 0 0 0 0 0 0 0 0 0 0 0 0 0 0 0 0 0 0 0 0 0 0 0 0 0 0 0 0 0 0 0 0 0 0 0 0 0 0 0 0 0
0 0 0 0 0 0 0 0 0 0 0 0 0 0 0 0 0 0 0 0 0 0 0 0 0 0 0 0 0 0 0 0 0 0 0 0 0 0 0 0 0 0 0
0 0 0 0 0 0 0 0 0 0 0 0 0 0 0 0 0 0 0 0 0 0 0 0 0 0 0 0 0 0 0 0 0 0 0 0 0 0 0 0 0 0 0
0 0 0 0 0 0 0 0 0 0 0 0 0 0 0 0 0 0 0 0 0 0 0 0 0 0 0 0 0 0 0 0 0 0 0 0 0 0 0 0 0 0 0
0 0 0 0 0 0 0 0 0 0 0 0 0 0 0 0 0 0 0 0 0 0 0 0 0 0 0 0 0 0 0 0 0 0 0 0 0 0 0 0 0 0 0
Wind_Speed_500mb
23 21 18 19 22 24 26 26 27 25 28 27 24 24 24 27 24 24 33 39 28 25 31 27 29 28 22 26 27 26 25 19 24 21 24 10 10 16 17 19 24 30 34
15 16 19 20 23 24 24 23 24 26 25 25 24 24 21 25 28 23 25 32 34 36 33 33 36 37 34 28 30 27 26 22 17 23 25 11 16 10 10 21 27 27 28
18 21 20 20 22 27 27 23 26 25 24 24 24 22 21 25 27 20 26 27 27 28 31 34 38 38 33 30 29 28 23 18 10 15 26 17 1 11 21 21 24 24 28
20 18 21 23 27 33 27 22 23 24 25 23 22 20 21 26 26 20 19 21 24 27 29 34 39 39 36 30 29 28 18 14 7 11 24 14 22 22 17 19 25 28 30
17 18 22 24 27 29 25 26 28 27 23 19 22 19 21 27 29 25 25 27 27 25 28 38 46 45 33 25 24 26 15 9 11 14 22 28 27 20 12 12 23 30 32
14 19 26 27 32 32 29 29 31 28 23 18 23 25 30 28 29 30 30 24 21 27 27 41 51 48 30 18 13 20 10 6 12 12 20 26 25 19 9 15 17 15 22
15 21 25 28 34 36 31 29 29 29 26 22 25 29 33 28 38 37 31 19 18 25 28 46 50 45 25 12 12 14 7 7 15 9 14 29 25 12 11 15 13 23 29
22 23 25 27 32 35 35 34 37 34 31 28 25 27 33 32 34 34 31 27 23 24 32 43 43 35 25 18 14 11 8 16 12 14 11 19 20 9 15 9 11 19 24
32 32 29 28 29 32 36 39 39 32 31 32 33 33 35 36 32 31 29 25 20 29 34 34 31 28 24 17 14 14 19 22 25 21 20 24 22 18 11 7 12 13 23
40 38 31 26 27 30 35 38 38 38 34 31 31 31 33 36 25 15 16 21 23 25 26 19 23 24 23 21 16 23 29 28 24 30 32 27 24 18 14 13 16 10 14
38 35 24 20 25 30 33 38 38 33 27 28 24 27 27 31 19 11 17 20 19 22 20 20 29 28 29 26 20 24 32 33 34 32 29 25 17 13 6 7 11 10 7
32 32 26 25 24 24 31 37 35 27 23 23 27 23 25 23 18 17 17 18 21 20 25 28 27 27 29 31 34 33 38 35 28 26 24 24 20 14 12 12 18 21 29
31 27 25 22 25 34 33 30 34 31 31 31 26 17 22 24 22 20 19 21 22 26 28 28 29 30 33 34 35 35 27 27 25 26 32 30 24 20 19 31 40 46 50
23 26 22 27 29 31 32 31 28 32 41 40 26 22 19 23 21 19 22 24 26 30 31 34 34 33 32 30 31 25 27 23 25 32 35 36 36 37 43 44 46 46 46
22 25 27 31 27 29 29 27 25 30 35 36 37 32 24 26 27 28 29 28 33 32 35 37 39 42 40 35 34 32 32 33 33 35 40 39 42 44 44 40 44 39 50
23 28 25 24 26 24 24 26 31 37 38 36 40 35 38 36 34 33 35 36 37 38 41 43 42 39 38 39 40 41 41 42 43 43 45 45 49 48 44 41 38 38 39
33 22 22 29 31 31 34 36 39 41 45 42 42 41 42 43 43 43 41 39 37 34 40 41 41 38 39 41 43 47 51 53 54 55 57 50 42 40 36 35 33 31 31
28 27 33 31 33 37 42 44 40 41 44 45 40 42 43 42 42 38 35 38 46 47 44 43 44 46 47 48 51 55 56 52 51 51 50 50 46 42 40 39 37 37 38
32 32 34 36 38 39 40 38 42 40 43 43 46 46 43 42 43 44 45 48 48 48 47 48 47 47 47 49 55 52 54 58 58 57 54 50 46 44 43 41 39 36 33
37 37 37 37 38 37 38 42 46 48 49 50 51 51 49 48 53 56 58 58 59 57 57 57 54 53 53 53 53 56 56 53 50 47 42 37 32 28 26 23 21 21 22
36 31 32 33 39 41 44 46 51 56 56 52 50 51 56 58 57 59 61 63 61 58 54 55 56 56 55 55 53 50 47 43 39 36 33 32 27 20 18 21 19 17 8
54 53 50 50 48 45 45 49 52 54 52 53 55 56 56 62 63 62 62 61 59 58 58 56 54 54 50 46 43 40 38 37 37 37 34 33 38 33 24 17 18 19 15
42 53 55 52 43 43 48 48 50 51 50 51 53 55 55 55 54 53 54 55 57 58 56 55 51 47 43 39 35 33 33 31 31 31 29 29 29 28 25 22 16 14 11
37 37 37 39 45 52 50 50 48 50 50 52 55 57 57 58 58 60 58 55 52 51 49 47 45 43 41 41 42 40 36 35 34 31 28 26 27 27 25 22 21 18 16
33 40 41 40 46 49 48 47 47 50 52 55 57 57 56 54 57 55 52 49 46 43 39 36 34 32 31 32 33 33 33 33 33 30 27 27 27 29 28 25 21 19 18
32 33 39 39 39 38 40 42 43 44 46 47 47 47 46 44 43 41 40 38 38 38 39 40 41 37 33 31 32 30 29 32 34 32 29 28 31 34 32 31 28 27 25
Wind_Direction_500mb
337 341 355 354 345 339 333 331 331 333 326 327 329 333 339 348 349 355 358 7 10 359 1 4 8 8 359 351 344 345 344 354 340 346 149 82 149 112 94 91 97 93 88
2 351 343 343 343 344 340 339 337 336 331 324 327 333 334 343 345 343 357 6 11 19 17 6 12 9 8 355 352 345 348 355 4 143 133 116 146 104 89 85 83 80 76
350 348 352 350 349 345 340 336 337 337 338 335 330 334 331 333 340 348 349 355 359 4 0 356 357 354 358 358 348 347 353 358 26 193 150 124 141 120 94 74 71 70 71
352 2 358 352 350 349 352 348 341 337 338 338 344 335 335 337 337 334 329 333 341 347 346 354 353 349 347 346 352 357 349 12 64 203 165 161 151 119 67 77 75 70 69
353 354 357 355 348 351 353 353 351 347 346 347 343 342 339 340 342 338 322 328 328 335 336 347 351 347 341 336 344 353 7 49 133 183 165 146 143 118 69 73 78 76 72
350 0 360 359 357 356 351 351 351 350 347 343 345 344 346 347 351 344 331 328 324 322 326 341 348 346 346 343 339 346 16 111 133 159 175 158 153 117 80 81 43 62 69
353 351 350 347 357 3 359 351 346 348 344 330 337 344 345 350 350 346 348 338 318 326 336 343 345 346 359 0 346 355 28 139 127 147 173 178 151 85 120 83 55 76 80
337 333 342 348 346 353 346 342 345 340 335 330 326 325 327 326 332 333 342 345 331 319 342 342 350 360 15 18 10 22 62 110 111 130 160 175 135 114 114 81 78 63 77
329 333 337 330 336 335 340 343 345 341 335 336 330 324 320 315 313 322 328 341 355 342 338 347 360 8 16 33 40 88 97 103 99 114 116 127 135 117 103 59 77 53 77
326 319 322 324 324 332 344 346 345 340 336 329 325 328 330 336 310 311 329 352 350 345 353 11 10 25 39 44 86 107 116 109 110 120 121 124 121 117 106 100 45 65 54
352 359 333 315 327 341 347 345 344 346 351 344 343 339 347 4 13 17 20 6 9 11 30 31 32 50 49 57 85 104 113 112 111 110 109 110 114 119 104 45 354 356 17
349 349 347 332 331 344 343 343 348 349 354 348 356 1 9 18 34 37 39 33 23 46 42 45 52 57 59 72 84 95 107 98 89 95 99 98 97 98 78 57 74 82 100
343 347 346 354 349 349 347 348 358 4 4 358 5 19 37 41 49 55 58 36 61 53 57 59 67 71 80 82 85 98 88 101 73 85 88 88 84 78 91 97 95 101 97
348 355 358 347 344 346 353 360 9 19 42 42 44 48 58 56 63 63 52 68 65 63 71 75 74 81 82 84 95 91 82 76 78 84 80 83 87 94 96 102 104 99 97
350 355 350 347 355 3 6 13 36 43 32 32 53 57 63 64 65 67 77 74 66 75 85 86 81 78 75 71 79 82 82 83 83 84 87 90 91 96 97 98 100 99 100
341 342 353 5 3 18 43 45 65 65 47 44 56 63 71 79 86 88 78 73 76 82 84 78 74 71 73 73 76 80 84 85 85 89 93 94 101 100 97 97 96 99 96
33 33 40 52 47 51 60 68 68 61 70 57 60 72 82 85 81 79 76 77 79 81 79 75 75 76 78 81 84 88 90 89 91 89 88 88 89 91 96 93 92 92 88
34 55 52 61 59 67 75 70 68 70 69 66 65 76 79 80 82 80 79 84 82 74 72 72 76 82 83 86 89 91 92 89 87 89 88 85 83 83 84 83 85 85 83
42 51 63 64 69 74 75 69 66 76 79 77 80 85 85 83 85 84 79 76 74 74 77 80 84 87 90 89 93 92 92 92 88 83 78 75 73 73 74 76 78 78 79
63 63 67 69 71 75 79 70 74 80 83 83 83 83 84 83 79 79 78 76 76 76 78 77 81 86 91 94 93 95 91 84 77 72 69 68 68 69 70 74 79 89 87
66 64 59 58 67 76 81 82 83 87 87 85 79 76 80 80 79 79 75 77 75 74 74 78 81 86 90 92 91 86 78 72 68 64 58 56 56 61 70 61 53 51 101
66 69 73 71 75 81 86 91 91 85 84 80 80 79 79 82 81 78 75 74 73 75 76 79 82 84 84 82 77 70 63 61 59 55 55 52 48 49 52 52 54 49 50
72 65 59 56 64 81 90 93 90 84 82 80 80 80 81 79 76 72 72 76 78 78 78 78 78 77 73 68 62 59 58 54 48 44 44 43 42 37 30 33 33 25 28
70 48 52 62 76 89 87 89 87 86 83 81 80 82 83 81 80 79 80 77 76 74 74 73 71 69 67 62 60 58 56 52 47 42 34 35 33 26 26 34 39 41 38
63 65 68 73 83 87 85 84 86 86 85 84 84 83 82 78 76 75 74 74 73 69 66 61 58 56 55 58 56 50 46 39 36 39 40 33 33 39 46 53 56 60 63
73 70 73 73 74 80 84 85 88 88 88 87 85 83 80 77 73 69 64 60 59 60 62 62 61 61 60 54 45 38 37 40 43 42 38 41 50 56 59 62 62 63 63
Wind_Speed_850mb
23 21 18 19 22 24 26 26 27 25 28 27 24 24 24 27 24 24 33 39 28 25 31 27 29 28 22 26 27 26 25 19 24 21 24 10 10 16 17 19 24 30 34
15 16 19 20 23 24 24 23 24 26 25 25 24 24 21 25 28 23 25 32 34 36 33 33 36 37 34 28 30 27 26 22 17 23 25 11 16 10 10 21 27 27 28
18 21 20 20 22 27 27 23 26 25 24 24 24 22 21 25 27 20 26 27 27 28 31 34 38 38 33 30 29 28 23 18 10 15 26 17 1 11 21 21 24 24 28
20 18 21 23 27 33 27 22 23 24 25 23 22 20 21 26 26 20 19 21 24 27 29 34 39 39 36 30 29 28 18 14 7 11 24 14 22 22 17 19 25 28 30
17 18 22 24 27 29 25 26 28 27 23 19 22 19 21 27 29 25 25 27 27 25 28 38 46 45 33 25 24 26 15 9 11 14 22 28 27 20 12 12 23 30 32
14 19 26 27 32 32 29 29 31 28 23 18 23 25 30 28 29 30 30 24 21 27 27 41 51 48 30 18 13 20 10 6 12 12 20 26 25 19 9 15 17 15 22
15 21 25 28 34 36 31 29 29 29 26 22 25 29 33 28 38 37 31 19 18 25 28 46 50 45 25 12 12 14 7 7 15 9 14 29 25 12 11 15 13 23 29
22 23 25 27 32 35 35 34 37 34 31 28 25 27 33 32 34 34 31 27 23 24 32 43 43 35 25 18 14 11 8 16 12 14 11 19 20 9 15 9 11 19 24
32 32 29 28 29 32 36 39 39 32 31 32 33 33 35 36 32 31 29 25 20 29 34 34 31 28 24 17 14 14 19 22 25 21 20 24 22 18 11 7 12 13 23
40 38 31 26 27 30 35 38 38 38 34 31 31 31 33 36 25 15 16 21 23 25 26 19 23 24 23 21 16 23 29 28 24 30 32 27 24 18 14 13 16 10 14
38 35 24 20 25 30 33 38 38 33 27 28 24 27 27 31 19 11 17 20 19 22 20 20 29 28 29 26 20 24 32 33 34 32 29 25 17 13 6 7 11 10 7
32 32 26 25 24 24 31 37 35 27 23 23 27 23 25 23 18 17 17 18 21 20 25 28 27 27 29 31 34 33 38 35 28 26 24 24 20 14 12 12 18 21 29
31 27 25 22 25 34 33 30 34 31 31 31 26 17 22 24 22 20 19 21 22 26 28 28 29 30 33 34 35 35 27 27 25 26 32 30 24 20 19 31 40 46 50
23 26 22 27 29 31 32 31 28 32 41 40 26 22 19 23 21 19 22 24 26 30 31 34 34 33 32 30 31 25 27 23 25 32 35 36 36 37 43 44 46 46 46
22 25 27 31 27 29 29 27 25 30 35 36 37 32 24 26 27 28 29 28 33 32 35 37 39 42 40 35 34 32 32 33 33 35 40 39 42 44 44 40 44 39 50
23 28 25 24 26 24 24 26 31 37 38 36 40 35 38 36 34 33 35 36 37 38 41 43 42 39 38 39 40 41 41 42 43 43 45 45 49 48 44 41 38 38 39
33 22 22 29 31 31 34 36 39 41 45 42 42 41 42 43 43 43 41 39 37 34 40 41 41 38 39 41 43 47 51 53 54 55 57 50 42 40 36 35 33 31 31
28 27 33 31 33 37 42 44 40 41 44 45 40 42 43 42 42 38 35 38 46 47 44 43 44 46 47 48 51 55 56 52 51 51 50 50 46 42 40 39 37 37 38
32 32 34 36 38 39 40 38 42 40 43 43 46 46 43 42 43 44 45 48 48 48 47 48 47 47 47 49 55 52 54 58 58 57 54 50 46 44 43 41 39 36 33
37 37 37 37 38 37 38 42 46 48 49 50 51 51 49 48 53 56 58 58 59 57 57 57 54 53 53 53 53 56 56 53 50 47 42 37 32 28 26 23 21 21 22
36 31 32 33 39 41 44 46 51 56 56 52 50 51 56 58 57 59 61 63 61 58 54 55 56 56 55 55 53 50 47 43 39 36 33 32 27 20 18 21 19 17 8
54 53 50 50 48 45 45 49 52 54 52 53 55 56 56 62 63 62 62 61 59 58 58 56 54 54 50 46 43 40 38 37 37 37 34 33 38 33 24 17 18 19 15
42 53 55 52 43 43 48 48 50 51 50 51 53 55 55 55 54 53 54 55 57 58 56 55 51 47 43 39 35 33 33 31 31 31 29 29 29 28 25 22 16 14 11
37 37 37 39 45 52 50 50 48 50 50 52 55 57 57 58 58 60 58 55 52 51 49 47 45 43 41 41 42 40 36 35 34 31 28 26 27 27 25 22 21 18 16
33 40 41 40 46 49 48 47 47 50 52 55 57 57 56 54 57 55 52 49 46 43 39 36 34 32 31 32 33 33 33 33 33 30 27 27 27 29 28 25 21 19 18
32 33 39 39 39 38 40 42 43 44 46 47 47 47 46 44 43 41 40 38 38 38 39 40 41 37 33 31 32 30 29 32 34 32 29 28 31 34 32 31 28 27 25
Wind_Direction_850mb
337 341 355 354 345 339 333 331 331 333 326 327 329 333 339 348 349 355 358 7 10 359 1 4 8 8 359 351 344 345 344 354 340 346 149 82 149 112 94 91 97 93 88
2 351 343 343 343 344 340 339 337 336 331 324 327 333 334 343 345 343 357 6 11 19 17 6 12 9 8 355 352 345 348 355 4 143 133 116 146 104 89 85 83 80 76
350 348 352 350 349 345 340 336 337 337 338 335 330 334 331 333 340 348 349 355 359 4 0 356 357 354 358 358 348 347 353 358 26 193 150 124 141 120 94 74 71 70 71
352 2 358 352 350 349 352 348 341 337 338 338 344 335 335 337 337 334 329 333 341 347 346 354 353 349 347 346 352 357 349 12 64 203 165 161 151 119 67 77 75 70 69
353 354 357 355 348 351 353 353 351 347 346 347 343 342 339 340 342 338 322 328 328 335 336 347 351 347 341 336 344 353 7 49 133 183 165 146 143 118 69 73 78 76 72
350 0 360 359 357 356 351 351 351 350 347 343 345 344 346 347 351 344 331 328 324 322 326 341 348 346 346 343 339 346 16 111 133 159 175 158 153 117 80 81 43 62 69
353 351 350 347 357 3 359 351 346 348 344 330 337 344 345 350 350 346 348 338 318 326 336 343 345 346 359 0 346 355 28 139 127 147 173 178 151 85 120 83 55 76 80
337 333 342 348 346 353 346 342 345 340 335 330 326 325 327 326 332 333 342 345 331 319 342 342 350 360 15 18 10 22 62 110 111 130 160 175 135 114 114 81 78 63 77
329 333 337 330 336 335 340 343 345 341 335 336 330 324 320 315 313 322 328 341 355 342 338 347 360 8 16 33 40 88 97 103 99 114 116 127 135 117 103 59 77 53 77
326 319 322 324 324 332 344 346 345 340 336 329 325 328 330 336 310 311 329 352 350 345 353 11 10 25 39 44 86 107 116 109 110 120 121 124 121 117 106 100 45 65 54
352 359 333 315 327 341 347 345 344 346 351 344 343 339 347 4 13 17 20 6 9 11 30 31 32 50 49 57 85 104 113 112 111 110 109 110 114 119 104 45 354 356 17
349 349 347 332 331 344 343 343 348 349 354 348 356 1 9 18 34 37 39 33 23 46 42 45 52 57 59 72 84 95 107 98 89 95 99 98 97 98 78 57 74 82 100
343 347 346 354 349 349 347 348 358 4 4 358 5 19 37 41 49 55 58 36 61 53 57 59 67 71 80 82 85 98 88 101 73 85 88 88 84 78 91 97 95 101 97
348 355 358 347 344 346 353 360 9 19 42 42 44 48 58 56 63 63 52 68 65 63 71 75 74 81 82 84 95 91 82 76 78 84 80 83 87 94 96 102 104 99 97
350 355 350 347 355 3 6 13 36 43 32 32 53 57 63 64 65 67 77 74 66 75 85 86 81 78 75 71 79 82 82 83 83 84 87 90 91 96 97 98 100 99 100
341 342 353 5 3 18 43 45 65 65 47 44 56 63 71 79 86 88 78 73 76 82 84 78 74 71 73 73 76 80 84 85 85 89 93 94 101 100 97 97 96 99 96
33 33 40 52 47 51 60 68 68 61 70 57 60 72 82 85 81 79 76 77 79 81 79 75 75 76 78 81 84 88 90 89 91 89 88 88 89 91 96 93 92 92 88
34 55 52 61 59 67 75 70 68 70 69 66 65 76 79 80 82 80 79 84 82 74 72 72 76 82 83 86 89 91 92 89 87 89 88 85 83 83 84 83 85 85 83
42 51 63 64 69 74 75 69 66 76 79 77 80 85 85 83 85 84 79 76 74 74 77 80 84 87 90 89 93 92 92 92 88 83 78 75 73 73 74 76 78 78 79
63 63 67 69 71 75 79 70 74 80 83 83 83 83 84 83 79 79 78 76 76 76 78 77 81 86 91 94 93 95 91 84 77 72 69 68 68 69 70 74 79 89 87
66 64 59 58 67 76 81 82 83 87 87 85 79 76 80 80 79 79 75 77 75 74 74 78 81 86 90 92 91 86 78 72 68 64 58 56 56 61 70 61 53 51 101
66 69 73 71 75 81 86 91 91 85 84 80 80 79 79 82 81 78 75 74 73 75 76 79 82 84 84 82 77 70 63 61 59 55 55 52 48 49 52 52 54 49 50
72 65 59 56 64 81 90 93 90 84 82 80 80 80 81 79 76 72 72 76 78 78 78 78 78 77 73 68 62 59 58 54 48 44 44 43 42 37 30 33 33 25 28
70 48 52 62 76 89 87 89 87 86 83 81 80 82 83 81 80 79 80 77 76 74 74 73 71 69 67 62 60 58 56 52 47 42 34 35 33 26 26 34 39 41 38
63 65 68 73 83 87 85 84 86 86 85 84 84 83 82 78 76 75 74 74 73 69 66 61 58 56 55 58 56 50 46 39 36 39 40 33 33 39 46 53 56 60 63
73 70 73 73 74 80 84 85 88 88 88 87 85 83 80 77 73 69 64 60 59 60 62 62 61 61 60 54 45 38 37 40 43 42 38 41 50 56 59 62 62 63 63